Location: Navalespino
(40.5894°N, 4.2660°W)
Time: 22:53:38
(UTC+00:00)

SJ 16-02 - Pass Details

Date: 18 April 2024
Orbit: 595 x 605 km, 75.0° (Epoch: 23 May)

Event Time Altitude Azimuth Distance (km) Brightness Sun altitude
Rises 19:37:51 0° 338° (NNW) 2,847 5.5 -7.7°
Reaches altitude 10° 19:40:06 10° 335° (NNW) 1,939 4.7 -8.0°
Maximum altitude 19:44:21 60° 256° (WSW) 683 1.9 -8.8°
Drops below altitude 10° 19:48:35 10° 176° (S) 1,922 3.6 -9.5°
Sets 19:50:48 0° 173° (S) 2,820 4.4 -9.9°
